Location: Bruch
(44.2051°N, 0.4120°E)
Time: 17:29:46
(UTC+00:00)

H-2A R/B - Pass Details

Date: 29 November 2020
Orbit: 499 x 540 km, 97.3° (Epoch: 22 January)

Event Time Altitude Azimuth Distance (km) Brightness Sun altitude
Rises 06:09:50 0° 4° (N) 2,709 6.2 -10.9°
Reaches altitude 10° 06:12:04 10° 357° (N) 1,810 5.2 -10.5°
Maximum altitude 06:15:43 39° 288° (WNW) 816 3.2 -9.9°
Drops below altitude 10° 06:19:19 10° 219° (SW) 1,781 5.2 -9.3°
Sets 06:21:29 0° 212° (SSW) 2,660 6.2 -8.9°
